TimeEDT,TemperatureF,Dew PointF,Humidity,Sea Level PressureIn,VisibilityMPH,Wind Direction,Wind SpeedMPH,Gust SpeedMPH,PrecipitationIn,Events,Conditions,WindDirDegrees,DateUTC
12:56 AM,73.9,73.0,97,29.77,8.0,South,3.5,-,N/A,,Partly Cloudy,180,2012-10-02 04:56:00
1:56 AM,75.2,73.4,94,29.77,10.0,South,6.9,-,N/A,,Scattered Clouds,180,2012-10-02 05:56:00
2:56 AM,77.0,73.9,90,29.78,10.0,South,6.9,-,N/A,,Scattered Clouds,180,2012-10-02 06:56:00
3:56 AM,77.0,73.9,90,29.77,10.0,South,8.1,-,N/A,,Mostly Cloudy,180,2012-10-02 07:56:00
4:56 AM,77.0,73.0,88,29.78,10.0,South,8.1,-,N/A,,Mostly Cloudy,170,2012-10-02 08:56:00
5:56 AM,77.0,73.0,88,29.80,10.0,South,11.5,-,N/A,,Mostly Cloudy,190,2012-10-02 09:56:00
6:56 AM,75.9,73.0,91,29.81,10.0,South,11.5,-,N/A,,Scattered Clouds,180,2012-10-02 10:56:00
7:25 AM,75.2,73.4,94,29.81,10.0,South,8.1,-,N/A,,Scattered Clouds,190,2012-10-02 11:25:00
7:56 AM,75.9,73.0,91,29.83,10.0,South,8.1,-,N/A,,Scattered Clouds,190,2012-10-02 11:56:00
8:28 AM,77.0,73.4,89,29.84,10.0,SSW,8.1,-,N/A,,Mostly Cloudy,200,2012-10-02 12:28:00
8:56 AM,77.0,73.9,90,29.85,10.0,SSW,10.4,-,N/A,,Mostly Cloudy,210,2012-10-02 12:56:00
9:56 AM,80.1,73.9,81,29.87,10.0,SSW,9.2,-,N/A,,Mostly Cloudy,210,2012-10-02 13:56:00
10:22 AM,82.4,73.4,74,29.87,10.0,SW,9.2,19.6,N/A,,Mostly Cloudy,220,2012-10-02 14:22:00
10:56 AM,82.9,73.9,74,29.88,10.0,SW,10.4,-,N/A,,Mostly Cloudy,220,2012-10-02 14:56:00
11:56 AM,82.9,73.0,72,29.88,10.0,SW,9.2,-,N/A,,Mostly Cloudy,230,2012-10-02 15:56:00
12:20 PM,80.6,73.4,79,29.89,7.0,SW,10.4,-,0.00,Rain,Light Rain,230,2012-10-02 16:20:00
12:56 PM,84.0,73.9,72,29.88,10.0,SSW,8.1,-,0.00,,Mostly Cloudy,210,2012-10-02 16:56:00
1:56 PM,84.9,73.9,69,29.86,10.0,WSW,12.7,-,0.00,Rain,Light Rain,240,2012-10-02 17:56:00
2:56 PM,87.1,73.9,65,29.86,10.0,WSW,11.5,-,0.01,,Mostly Cloudy,240,2012-10-02 18:56:00
3:56 PM,87.8,71.6,58,29.85,10.0,WSW,10.4,-,N/A,,Mostly Cloudy,240,2012-10-02 19:56:00
4:56 PM,79.0,73.0,82,29.87,10.0,SSW,4.6,-,0.01,,Mostly Cloudy,200,2012-10-02 20:56:00
5:56 PM,81.0,73.9,79,29.88,10.0,SSW,5.8,-,N/A,,Mostly Cloudy,210,2012-10-02 21:56:00
6:56 PM,80.1,73.9,81,29.91,10.0,SSW,4.6,-,0.00,,Mostly Cloudy,210,2012-10-02 22:56:00
7:56 PM,79.0,73.0,82,29.93,10.0,South,6.9,-,N/A,,Mostly Cloudy,190,2012-10-02 23:56:00
8:56 PM,77.0,73.4,89,29.95,10.0,South,5.8,-,N/A,,Mostly Cloudy,190,2012-10-03 00:56:00
9:56 PM,77.0,73.4,89,29.97,10.0,SW,5.8,-,N/A,,Mostly Cloudy,220,2012-10-03 01:56:00
10:56 PM,77.0,73.0,88,30.00,10.0,SW,5.8,-,N/A,,Mostly Cloudy,220,2012-10-03 02:56:00
11:56 PM,75.9,72.0,87,30.01,10.0,SW,4.6,-,N/A,,Mostly Cloudy,230,2012-10-03 03:56:00